User: anonymous   Login
Location: Theydon Bois
(51.6750°N, 0.1050°E)
Time: 18:58:02
(UTC+01:00)
Language:

Cosmos 2360 Rocket - Orbit

View from above orbital plane
View from above orbital plane
View from above satellite
View from above satellite

Ground track
Ground track

The orbit data is extracted from the following two-line orbital elements,

1 25407U 98045B   18171.89470323 +.00000009 +00000-0 +28725-4 0  9995
2 25407 071.0111 346.5960 0007829 349.4341 010.6616 14.15774501028104
Epoch (UTC): 20 June 2018 21:28:22
Eccentricity: 0.0007829
inclination: 71.0111°
perigee height: 834 km
apogee height: 845 km
right ascension of ascending node: 346.5960°
argument of perigee: 349.4341°
revolutions per day: 14.15774501
mean anomaly at epoch: 10.6616°
orbit number at epoch: 2810

The dashed part of the orbit path shows where the satellite is in the earth's shadow,  

DLR